TIMATION 1

Satellite information

Favourite Embed

Satellite Type and Status

PAYLOADIN ORBIT

Key statistics

Satellite TIMATION 1 at a glance.

Uptime

21221

Days in orbit

Revolutions

≈ 14.0

Per day

Orbit

LEO

Low Earth Orbit

Inclination

70.0

Latest

Satellite identification and parameters

Extended collection of information and parameters for TIMATION 1.

Object identification

Identified? True

Debris? False

Object name: TIMATION 1

International designator: 1967-053E

Object number (NORAD): 2847

Object ID (CCSDS): 2847

Country: UNITED STATES OF AMERICA (US)

Current information (Y/N): Y

RCS size: MEDIUM

Orbital parameters

Period: 102.652 minutes

Inclination: 69.9639 deg

SMA: 7262.269 km

Apoapsis: 888.373 km

Periapsis: 879.896 km

RAAN: 238.0398 deg

Eccentricy: 0.0005836

Argument of periapsis: 181.2881 deg

Mean anomaly: 178.8214 deg

Mean motion: 14.02795077 rev/day

Mean motion (dot): 0.00000095 rev/day2

B* drag term: 0.000096611 1/REarth

Two-line elements (TLE)

Creation date: July 5, 2025, 5:45 p.m.

Reference frame: TEME

Reference center: EARTH

Epoch: July 5, 2025, 1:16 p.m. UTC

TLE line 0: 0 TIMATION 1

TLE line 1: 1 02847U 67053E 25186.55333035 .00000095 00000-0 96611-4 0 9992

TLE line 2: 2 02847 69.9639 238.0398 0005836 181.2881 178.8214 14.02795077965170

Live tracking on map

Real-time ground track for satellite TIMATION 1.

In-orbit conjunctions

A list of the most updated potential collisions computed for object TIMATION 1.

Target Orbit TCA Probability of collision Miss distance Type
FENGYUN 1C DEB SSO 2025-05-25 05:56:40 0.0001187943 198.0 (m) DEBRIS
METEOR 2-17 DEB LEO 2025-04-22 19:08:16 0.0002940142 47.0 (m) DEBRIS
CZ-6A DEB SSO 2025-01-24 05:54:27 0.0001265681 831.0 (m) DEBRIS
FENGYUN 1C DEB SSO 2024-11-20 18:41:54 0.0007343895 201.0 (m) DEBRIS

Associated space launch

Poppy was the follow-on ELINT system, which succeeded the Grab ELINT satellite system.

TIMATION 1 was lifted into orbit during the mission ‘Thor SLV-2 Agena D | Poppy 7A,B,C,D’, on board a Thor SLV-2 Agena D space rocket.

The launch took place on May 31, 1967, 9:30 a.m. from Space Launch Complex 2W.

For more information about the launch, click the button.

Launch to space Thor SLV-2 Agena D | Poppy 7A,B,C,D
Thor SLV-2 Agena D | Poppy 7A,B,C,D

Agency: N/A

Status: Launch Successful

Launch date: May 31, 1967, 9:30 a.m. UTC

Rocket: Thor SLV-2 Agena D

Launch pad: Space Launch Complex 2W

Location: Vandenberg SFB, CA, USA

...

Latest news about this satellite

There are no fresh news available about this satellite. Check back as we update our databases every day.


Newsletter sign-up

Weekly statistics, charts and insights to help you stay on top of the space industry.